Vorticity
-1 4 10 6 15 31 8 6 4 5 -5 10 0 16 9 -1 14 12 9 4 6 5 4 5 5 5 5 4 4 3 3 3 5 4 4 3 3 2 3 3 4 5 5 8 9 7 6 6 5
6 10 -1 15 12 -5 7 8 6 10 7 3 1 2 12 5 -4 39 6 5 2 4 3 3 6 5 5 5 4 4 3 3 3 3 3 3 3 4 4 5 6 6 8 8 6 7 9 8 7
12 9 4 1 29 7 0 6 8 4 1 5 6 2 4 22 21 10 8 5 3 3 4 3 4 5 5 5 5 4 4 3 4 4 4 4 4 5 6 6 7 9 9 6 6 8 8 3 3
1 -15 -2 23 -0 8 4 3 6 7 9 11 3 12 11 4 22 6 3 4 3 2 4 3 4 4 5 4 4 4 4 4 5 5 6 6 7 7 8 9 9 8 6 6 4 2 1 5 4
2 -6 16 8 4 3 6 3 5 8 17 7 -3 10 32 19 -3 8 2 3 6 2 2 4 4 4 4 4 3 4 5 4 6 7 8 8 7 8 8 9 8 6 6 5 3 3 3 2 3
-4 5 9 3 5 1 4 4 8 7 12 20 21 15 12 7 6 5 2 5 4 3 1 2 4 3 3 3 3 3 5 5 6 7 8 9 9 8 8 7 6 5 3 2 4 6 7 11 8
5 13 1 3 3 4 4 5 12 7 9 5 2 -2 10 10 8 5 6 3 5 3 -0 -3 5 4 4 3 3 3 4 5 7 5 7 10 9 9 7 6 5 5 -1 2 4 5 0 11 -1
-0 5 5 10 4 8 4 9 1 6 6 12 0 12 9 8 7 1 5 1 3 3 0 -1 9 5 3 3 2 4 5 5 6 6 7 8 8 7 6 5 4 2 4 5 9 9 1 1 10
-1 7 9 4 8 6 3 4 0 11 4 9 17 6 13 17 5 4 7 2 5 -2 5 0 -2 7 7 2 3 3 4 5 6 6 7 6 9 4 2 5 4 4 8 3 4 2 9 9 15
3 31 -1 7 8 5 1 6 6 -1 5 1 9 21 28 9 7 6 8 2 6 1 1 3 -3 -4 5 2 3 1 3 3 2 6 7 6 6 5 7 3 3 -2 16 1 11 7 5 9 5
-6 19 3 8 21 8 5 3 11 11 1 11 15 6 5 0 11 7 7 10 8 2 4 3 5 4 9 -5 3 12 -20 10 5 5 6 6 4 7 0 16 6 15 -5 6 4 9 11 11 4
-3 3 1 10 1 4 6 3 4 4 10 25 20 -3 9 3 12 11 6 12 9 4 6 3 0 7 7 5 4 1 -12 14 4 4 5 5 -14 8 -5 15 3 6 12 5 7 9 13 5 4
11 6 7 7 5 5 2 5 8 1 8 20 15 5 14 10 8 9 2 7 1 13 6 4 4 8 7 8 6 6 14 6 3 4 2 5 10 7 -2 3 2 6 5 7 7 10 3 4 5
6 5 4 9 5 3 4 5 11 -2 9 8 8 7 11 8 8 9 2 5 8 9 8 6 5 9 5 7 6 4 20 5 -1 4 5 6 -1 9 6 5 4 7 7 4 6 12 6 7 6
9 0 8 9 5 4 7 2 9 3 6 -7 21 14 7 9 8 6 11 6 2 8 9 10 8 7 8 2 8 12 -0 10 4 4 4 4 3 6 2 3 8 2 7 5 6 7 8 7 7
2 18 -0 5 6 2 7 -1 9 7 6 6 5 9 7 2 13 8 10 7 0 11 5 7 7 9 5 7 7 9 1 4 3 2 3 6 4 9 5 3 1 11 3 9 7 5 5 5 7
6 15 10 8 9 3 8 1 9 9 7 5 6 6 5 2 7 5 9 14 9 10 7 7 6 7 9 7 5 7 18 6 1 5 6 13 5 7 8 7 3 8 4 7 7 8 7 1 13
0 6 2 6 7 8 4 0 3 9 7 9 6 7 6 4 5 5 9 17 13 4 14 7 8 7 7 7 6 5 9 10 6 5 6 21 2 6 3 1 6 8 6 6 7 8 5 10 2
3 2 2 9 9 4 9 8 7 7 6 8 8 6 9 6 7 -3 3 -1 10 14 10 12 11 8 8 7 6 6 10 10 10 4 5 17 4 4 1 2 8 5 11 5 7 7 5 11 7
6 2 3 6 9 7 6 5 9 7 7 9 12 12 7 9 6 4 -0 1 7 6 9 12 12 11 8 7 7 4 5 7 8 8 7 12 4 -2 1 2 2 3 4 6 6 6 5 5 5
2 3 9 6 -5 5 5 16 17 19 21 19 11 14 12 14 1 6 -1 -1 8 1 6 5 11 15 12 10 9 6 5 8 9 10 6 6 9 4 8 10 2 1 3 7 6 7 6 7 2
5 16 12 7 6 23 -9 0 9 19 9 6 15 15 20 14 1 14 6 -6 3 6 3 -0 2 8 13 11 10 8 7 6 9 11 11 9 9 9 10 11 9 3 4 8 6 6 7 2 8
2 -5 9 6 3 5 10 -1 30 8 1 15 9 13 25 28 10 10 6 -2 -5 5 4 -1 4 1 2 11 8 11 10 10 13 14 17 12 10 11 5 10 21 4 8 7 6 5 6 3 7
7 -6 10 5 5 16 28 -1 13 17 4 7 4 11 23 24 21 11 13 10 9 13 -0 3 1 4 1 2 2 10 12 8 13 16 21 14 10 9 7 11 11 5 9 7 6 5 7 4 5
9 2 8 23 31 11 -9 6 4 -1 5 15 9 7 12 18 18 17 15 5 13 13 1 -2 -8 8 3 5 3 7 12 12 14 13 16 8 13 7 8 16 6 5 3 10 7 5 8 5 5
5 4 -22 10 -1 16 9 9 20 3 12 12 14 13 2 15 19 17 14 15 9 8 3 2 1 8 2 6 7 7 5 8 14 14 14 12 10 10 7 10 2 -3 5 5 7 4 9 6 4
5 13 8 5 10 14 -1 9 -1 15 12 2 8 14 9 11 16 17 21 19 13 -8 17 3 5 6 2 8 12 7 5 2 1 7 19 13 13 13 11 9 3 5 -6 5 6 4 8 6 7
-10 -11 18 4 8 0 16 12 25 4 -1 -1 8 7 17 11 15 15 15 12 14 10 21 11 10 5 8 -3 -4 8 7 2 1 -1 3 21 13 10 13 7 4 9 10 5 11 5 6 6 6
8 3 8 -7 2 -4 12 17 -9 14 3 0 9 9 9 12 14 16 16 13 8 15 12 7 8 6 -1 13 2 9 10 7 4 -1 0 4 20 14 10 12 12 11 12 25 9 8 4 7 5
0 5 5 -7 6 6 7 25 -3 5 1 7 9 12 15 13 16 13 15 13 11 5 7 12 17 11 16 11 7 6 10 11 10 11 6 3 7 20 10 7 10 12 19 20 5 5 3 7 6
Height
3179 3179 3178 3178 3183 3181 3180 3183 3183 3184 3184 3186 3186 3185 3186 3185 3186 3192 3190 3192 3194 3196 3198 3199 3200 3201 3203 3204 3205 3206 3207 3207 3207 3207 3207 3207 3208 3208 3208 3209 3209 3208 3208 3206 3205 3204 3202 3201 3201
3180 3180 3180 3179 3182 3179 3185 3185 3185 3185 3186 3187 3188 3189 3188 3188 3188 3188 3192 3194 3196 3198 3200 3201 3202 3204 3206 3206 3207 3208 3209 3209 3209 3209 3209 3209 3210 3210 3210 3210 3211 3210 3210 3209 3208 3206 3205 3204 3203
3182 3182 3182 3177 3183 3183 3187 3188 3188 3188 3188 3189 3188 3189 3187 3189 3191 3193 3194 3196 3198 3200 3202 3203 3205 3206 3207 3208 3210 3210 3210 3211 3211 3211 3211 3211 3211 3211 3212 3212 3212 3212 3212 3211 3210 3209 3208 3206 3205
3184 3185 3187 3185 3183 3187 3189 3190 3190 3189 3189 3189 3190 3186 3188 3191 3190 3195 3197 3201 3200 3202 3204 3206 3207 3208 3210 3210 3211 3212 3212 3212 3213 3213 3213 3213 3213 3213 3213 3213 3213 3214 3214 3214 3213 3212 3210 3208 3207
3186 3187 3188 3190 3190 3191 3192 3192 3192 3192 3191 3192 3190 3186 3187 3190 3193 3196 3201 3202 3202 3204 3205 3208 3209 3210 3211 3211 3212 3214 3214 3214 3215 3215 3215 3215 3215 3215 3215 3216 3216 3216 3216 3216 3215 3214 3211 3210 3209
3189 3190 3191 3190 3192 3193 3194 3195 3194 3194 3193 3193 3191 3189 3191 3192 3195 3198 3203 3202 3204 3205 3206 3208 3210 3212 3213 3214 3214 3214 3216 3216 3216 3216 3217 3217 3217 3217 3218 3218 3218 3218 3218 3217 3216 3214 3213 3211 3210
3187 3189 3189 3192 3195 3196 3196 3197 3196 3197 3197 3196 3197 3194 3194 3196 3197 3202 3204 3203 3204 3207 3208 3210 3212 3213 3215 3215 3216 3216 3217 3218 3218 3217 3218 3218 3219 3220 3219 3220 3220 3220 3220 3219 3217 3215 3214 3211 3210
3191 3195 3194 3194 3195 3197 3198 3198 3199 3199 3198 3196 3198 3195 3194 3196 3199 3201 3202 3204 3205 3207 3209 3211 3212 3213 3216 3217 3217 3219 3219 3219 3219 3219 3219 3220 3221 3222 3221 3221 3221 3222 3221 3220 3218 3217 3215 3212 3209
3193 3195 3196 3197 3197 3199 3200 3200 3200 3199 3198 3199 3197 3199 3195 3197 3198 3199 3202 3203 3206 3208 3210 3212 3213 3215 3215 3218 3219 3220 3220 3220 3220 3221 3221 3221 3222 3222 3223 3223 3223 3223 3222 3221 3219 3218 3216 3213 3209
3195 3196 3197 3198 3198 3199 3201 3201 3201 3201 3200 3198 3197 3199 3195 3197 3197 3198 3201 3202 3206 3208 3210 3212 3214 3215 3215 3218 3219 3220 3222 3221 3222 3221 3223 3223 3223 3225 3224 3225 3225 3224 3224 3222 3220 3219 3216 3213 3210
3198 3197 3199 3200 3199 3201 3201 3202 3202 3202 3202 3200 3199 3198 3197 3198 3198 3199 3201 3204 3206 3208 3210 3211 3214 3216 3217 3218 3218 3221 3223 3222 3221 3222 3223 3224 3224 3226 3227 3224 3225 3221 3224 3222 3224 3222 3218 3213 3206
3200 3201 3201 3202 3202 3202 3203 3203 3203 3202 3201 3200 3199 3197 3198 3197 3198 3200 3201 3203 3205 3207 3210 3211 3213 3215 3217 3219 3219 3219 3218 3221 3221 3222 3223 3224 3225 3226 3227 3225 3228 3223 3226 3226 3225 3222 3219 3214 3207
3199 3202 3202 3203 3203 3204 3204 3204 3203 3202 3201 3199 3199 3197 3199 3201 3199 3201 3202 3203 3205 3207 3208 3210 3213 3214 3216 3218 3219 3218 3219 3220 3220 3222 3223 3224 3226 3226 3227 3228 3229 3226 3226 3225 3224 3223 3221 3220 3217
3202 3202 3203 3203 3204 3204 3204 3204 3203 3202 3200 3199 3199 3199 3200 3203 3205 3204 3203 3202 3204 3206 3207 3209 3211 3212 3215 3216 3217 3217 3216 3217 3219 3222 3221 3223 3225 3226 3229 3229 3227 3226 3225 3225 3225 3225 3223 3222 3222
3202 3202 3203 3203 3204 3204 3203 3204 3204 3202 3201 3200 3200 3201 3201 3202 3204 3207 3204 3204 3203 3204 3206 3208 3210 3211 3214 3215 3216 3216 3217 3218 3220 3221 3222 3223 3224 3225 3226 3228 3227 3226 3226 3226 3226 3226 3226 3223 3222
3201 3201 3201 3202 3203 3203 3204 3203 3202 3202 3202 3202 3202 3201 3201 3201 3201 3203 3204 3209 3205 3204 3204 3206 3209 3210 3213 3214 3215 3216 3216 3217 3218 3219 3220 3222 3223 3224 3226 3227 3228 3226 3226 3227 3227 3228 3226 3224 3224
3200 3201 3200 3202 3203 3203 3204 3202 3202 3202 3202 3203 3203 3202 3201 3200 3200 3200 3201 3203 3206 3203 3204 3205 3207 3209 3211 3212 3214 3214 3215 3216 3217 3217 3218 3220 3221 3223 3224 3226 3226 3226 3227 3226 3227 3226 3226 3225 3223
3199 3199 3201 3200 3202 3202 3202 3201 3201 3200 3201 3202 3201 3201 3201 3200 3199 3199 3199 3200 3203 3201 3202 3204 3206 3207 3209 3211 3212 3214 3214 3216 3216 3216 3216 3218 3219 3221 3223 3224 3225 3225 3226 3227 3226 3227 3227 3226 3225
3201 3199 3199 3200 3200 3201 3200 3199 3198 3199 3198 3198 3199 3199 3198 3199 3198 3198 3198 3199 3200 3200 3201 3202 3204 3205 3207 3208 3210 3211 3213 3214 3214 3215 3215 3216 3217 3218 3221 3223 3224 3224 3225 3225 3226 3227 3227 3225 3225
3199 3199 3197 3198 3199 3199 3198 3196 3195 3195 3194 3194 3195 3195 3195 3196 3197 3196 3196 3197 3198 3199 3200 3201 3202 3204 3205 3206 3208 3209 3210 3212 3212 3212 3212 3214 3215 3217 3219 3220 3222 3223 3223 3225 3225 3226 3226 3226 3225
3196 3197 3198 3197 3197 3196 3196 3189 3188 3189 3190 3191 3191 3191 3192 3192 3192 3194 3193 3194 3196 3198 3199 3199 3200 3201 3203 3204 3205 3206 3207 3208 3209 3209 3210 3211 3213 3215 3217 3218 3219 3221 3222 3223 3224 3225 3226 3225 3225
3191 3195 3197 3197 3197 3191 3193 3188 3183 3184 3187 3187 3187 3187 3188 3187 3185 3191 3191 3191 3193 3195 3197 3197 3198 3199 3201 3203 3204 3204 3204 3205 3205 3206 3206 3207 3210 3212 3213 3215 3217 3219 3220 3222 3223 3224 3225 3225 3225
3191 3194 3194 3194 3194 3190 3186 3186 3180 3181 3182 3183 3183 3183 3183 3184 3183 3184 3187 3188 3190 3191 3193 3195 3196 3197 3199 3200 3201 3202 3202 3202 3201 3201 3202 3203 3207 3208 3211 3212 3214 3217 3217 3220 3221 3223 3223 3224 3224
3191 3191 3193 3192 3189 3184 3181 3184 3176 3179 3179 3181 3181 3180 3179 3181 3183 3183 3182 3184 3185 3189 3189 3191 3194 3196 3197 3198 3199 3200 3199 3198 3198 3198 3198 3201 3203 3206 3208 3210 3212 3214 3215 3217 3219 3221 3222 3223 3223
3188 3190 3183 3180 3179 3173 3176 3177 3176 3178 3178 3179 3179 3178 3177 3178 3180 3182 3183 3181 3180 3185 3185 3187 3191 3193 3195 3195 3196 3197 3197 3196 3196 3196 3198 3199 3201 3204 3206 3208 3210 3212 3212 3215 3217 3219 3220 3221 3221
3184 3184 3176 3178 3180 3172 3174 3170 3173 3176 3177 3177 3177 3177 3176 3175 3177 3179 3180 3181 3178 3182 3182 3184 3187 3190 3191 3193 3194 3195 3195 3195 3194 3195 3196 3197 3199 3201 3202 3205 3208 3209 3211 3213 3216 3217 3218 3219 3219
3176 3177 3177 3177 3170 3165 3166 3167 3172 3169 3173 3175 3175 3175 3175 3174 3174 3175 3176 3176 3179 3174 3177 3181 3183 3187 3188 3190 3190 3191 3193 3194 3194 3194 3194 3195 3196 3198 3199 3202 3205 3207 3209 3210 3213 3215 3216 3217 3217
3175 3169 3176 3175 3171 3170 3167 3167 3165 3167 3168 3172 3174 3174 3172 3172 3171 3171 3171 3172 3174 3171 3174 3177 3180 3183 3185 3186 3188 3189 3190 3191 3192 3192 3193 3193 3193 3195 3196 3200 3202 3204 3206 3206 3210 3212 3213 3215 3215
3174 3174 3173 3171 3176 3174 3163 3163 3170 3156 3169 3168 3171 3172 3172 3170 3168 3168 3167 3168 3169 3169 3171 3173 3176 3179 3181 3183 3184 3186 3186 3187 3188 3189 3190 3191 3191 3192 3194 3196 3199 3200 3202 3204 3207 3209 3211 3210 3213
3168 3170 3173 3170 3169 3165 3161 3159 3164 3166 3164 3167 3169 3169 3170 3170 3169 3166 3166 3167 3167 3168 3169 3170 3173 3176 3178 3180 3181 3182 3182 3183 3183 3185 3186 3186 3187 3188 3191 3192 3195 3196 3197 3201 3205 3207 3209 3209 3211